Location: Newark
(52.0178°N, 4.7453°W)
Time: 16:55:10
(UTC+00:00)

ISS - Pass Details

Date: 23 March 2019
Orbit: 408 x 410 km, 51.6° (Epoch: 22 April)

Event Time Altitude Azimuth Distance (km) Brightness Sun altitude
Rises 19:16:02 0° 202° (SSW) 2,326 0.2 -6.8°
Reaches altitude 10° 19:18:45 10° 178° (S) 1,469 -1.1 -7.2°
Maximum altitude 19:20:42 15° 141° (SE) 1,210 -1.9 -7.5°
Enters shadow 19:22:31 11° 107° (ESE) 1,441 -1.7 -7.8°
